Location: Newark
(33.9035°S, 18.4112°E)
Time: 10:31:14
(UTC+00:00)

STARLINK-1104 - Pass Details

Date: 25 January 2020
Orbit: 549 x 550 km, 53.0° (Epoch: 22 February)

Event Time Altitude Azimuth Distance (km) Brightness Sun altitude
Exits shadow 01:57:37 20° 232° (SW) 1,308 5.4 -22.0°
Maximum altitude 01:58:30 22° 214° (SSW) 1,258 5.5 -21.8°
Drops below altitude 10° 02:01:48 10° 162° (SSE) 1,850 7.2 -21.3°
Sets 02:04:28 0° 146° (SE) 2,749 8.6 -20.9°
